Home > Weather > Tianjin > Past weeks

Flag for China Weather for the Past 2 Weeks in Tianjin, Tianjin Municipality, China

Now
82 °F

Passing clouds.


Feels Like: 80 °F
Forecast: 57 / 80 °F
Wind: 13 mph from Southeast

Location: Tianjin / Zhangguizhu

Current Time: May 4, 2016 at 2:14:16 PM

Latest Report: May 4, 2016 at 1:30 PM


Visibility: N/A

Pressure: 29.68 "Hg

Humidity: 15%

Dew Point: 30 °F

Location of TianjinLocation

Historic Weather in Tianjin — Graph

°F

Tianjin Temperature Yesterday

Maximum temperature yesterday: 79 °F (at 4:00 PM)
Minimum temperature yesterday: 52 °F (at 12:00 AM)
Average temperature yesterday: 66 °F

High & Low Weather Summary for the Past Weeks

 TemperatureHumidityPressure
High93 °F (May 1, 2:00 PM)94% (Apr 21, 3:00 AM)30.04 "Hg (Apr 21, 3:00 AM)
Low50 °F (Apr 24, 1:00 AM)7% (Apr 22, 2:30 PM)29.45 "Hg (May 3, 3:30 PM)
Average66 °F46%29.79 "Hg
* Reported Apr 19 12:00 Noon — May 4 12:30 PM, Tianjin, Weather by CustomWeather, © 2016

Note: Actual official high and low records may vary slightly from our data, if they occured in-between our weather recording intervals... More about our weather records

Advertising

Tianjin Weather History for the Previous 24 Hours

Scroll right to see more
 ConditionsComfort  
Time TempWeatherWind HumidityBarometerVisibility
12:30 PM
Wed, May 4
82 °FPassing clouds.3 mph11%29.71 "HgN/A
12:00 PM81 °FPassing clouds.6 mph13%29.71 "HgN/A
11:30 AM81 °FSunny.3 mph10%29.74 "Hg10 mi
11:00 AM79 °FSunny.3 mph12%29.74 "Hg10 mi
10:30 AM79 °FPassing clouds.6 mph13%29.74 "HgN/A
10:00 AM77 °FPassing clouds.6 mph17%29.74 "HgN/A
9:30 AM77 °FPassing clouds.3 mph18%29.74 "HgN/A
9:00 AM75 °FSunny.1 mph19%29.74 "Hg10 mi
8:30 AM73 °FSunny.1 mph17%29.74 "Hg10 mi
8:00 AM72 °FPassing clouds.3 mph16%29.74 "HgN/A
7:30 AM70 °FSunny.1 mph25%29.71 "Hg10 mi
7:00 AM68 °FSunny.No wind40%29.71 "Hg10 mi
6:30 AM61 °FSunny.No wind52%29.71 "Hg10 mi
6:00 AM55 °FSunny.1 mph63%29.68 "Hg10 mi
5:30 AM54 °FSunny.No wind54%29.68 "Hg10 mi
5:00 AM54 °FClear.No wind47%29.68 "Hg10 mi
4:30 AM55 °FClear.1 mph36%29.68 "Hg10 mi
4:00 AM59 °FClear.3 mph27%29.68 "Hg10 mi
3:30 AM63 °FClear.6 mph24%29.65 "Hg10 mi
3:00 AM63 °FClear.3 mph22%29.65 "Hg10 mi
2:30 AM61 °FClear.6 mph23%29.65 "Hg10 mi
2:00 AM63 °FClear.3 mph22%29.65 "Hg10 mi
1:30 AM61 °FClear.3 mph25%29.65 "Hg10 mi
1:00 AM61 °FPassing clouds.6 mph25%29.65 "HgN/A
12:30 AM66 °FPassing clouds.3 mph17%29.62 "HgN/A
12:00 AM70 °FClear.8 mph12%29.62 "Hg10 mi
11:30 PM
Tue, May 3
70 °FClear.8 mph13%29.62 "Hg10 mi
11:00 PM70 °FClear.8 mph13%29.62 "Hg10 mi
10:30 PM70 °FClear.10 mph13%29.62 "Hg10 mi
10:00 PM72 °FClear.8 mph13%29.59 "Hg10 mi
9:30 PM72 °FPassing clouds.8 mph13%29.59 "HgN/A
9:00 PM72 °FClear.6 mph13%29.59 "Hg10 mi
8:30 PM72 °FClear.8 mph13%29.56 "Hg10 mi
8:00 PM72 °FClear.8 mph13%29.56 "Hg10 mi
7:30 PM72 °FClear.6 mph14%29.53 "Hg10 mi
7:00 PM73 °FSunny.6 mph12%29.50 "Hg10 mi
6:30 PM75 °FSunny.13 mph11%29.50 "Hg10 mi
6:00 PM77 °FSunny.15 mph10%29.50 "Hg10 mi
5:30 PM77 °FSunny.20 mph8%29.47 "Hg10 mi
5:00 PM77 °FSunny.15 mph11%29.47 "Hg10 mi
4:30 PM79 °FPassing clouds.22 mph9%29.47 "HgN/A
4:00 PM79 °FSunny.24 mph8%29.45 "Hg10 mi
3:30 PM77 °FPassing clouds.24 mph8%29.45 "HgN/A
3:00 PM77 °FSunny.26 mph9%29.47 "Hg10 mi
2:30 PM77 °FSunny.22 mph11%29.47 "Hg10 mi
2:00 PM77 °FPassing clouds.26 mph11%29.47 "HgN/A
Weather by CustomWeather, © 2016

See weather overviewHow to use our weather pages